Weather in Maraty

Russia / Perm Krai     59°41′44″N   54°55′05″E
temp.,
°C
wind,
m/s
gust,
m/s
humid.,
%
clouds,
%
prec.,
mm/h
press.,
hPa
HPBL,
m
20 january, wed
wed2023:00−22ese128997 0.0 101620
02:00−20ese2291100 0.0 101437
05:00−17ese129799 0.1 101326
08:00−15ese1297100 0.1 101059
11:00−13sse2597100 0.3 1010187
14:00−12ssw2594100 0.3 1009391
17:00−14ssw229699 0.4 100944
20:00−17sw239898 0.1 100975
21 january, thu
thu2123:00−19sw259898 0.3 1009151
02:00−19sw259885 0.1 1009198
05:00−19sw259892 0.3 1009183
08:00−20sw2598100 0.2 1009155
11:00−20wsw229999 0.2 101068
14:00−18wsw239598 0.1 1010246
17:00−20wsw129999 0.1 101020
20:00−21w2299100 0.1 101141
22 january, fri
fri2223:00−22w139899 0.1 101297
02:00−22wnw1299100 0.1 101320
05:00−22wnw119898 0.2 101420
08:00−22nnw1299100 0.1 101628
11:00−22nne139897 0.2 1018116
14:00−20nne239578 0.0 1020223
17:00−23nne229859 0.0 102320
20:00−26ene12980 0.0 102619
23 january, sat
sat2323:00−26sse129744 0.0 102819
02:00−25sse2497100 0.0 103093
05:00−26s3890100 0.0 1030255
08:00−26sse3890100 0.0 1031267
11:00−26sse4890100 0.0 1030301
14:00−24sse4895100 0.1 1028322
17:00−22se51098100 1.4 1025356
20:00−21sse41098100 1.1 1024410
24 january, sun
sun2423:00−20sse41195100 1.8 1022528
02:00−17sse41094100 0.3 1021518
05:00−16sse41093100 0.5 1020490
08:00−15sse41192100 0.1 1018460
11:00−13sse4994100 1.1 1016409
14:00−10sse3794100 0.9 1015328
17:00−9se2297100 1.4 101557
20:00−9s009796 0.3 101721